Denver Centennial, CO

12:55 AM MDT on June 27, 2017 (GMT -0600)
Centennial

Weather History for KAPA - February, 2013

Change the Weather History Date:

Monday, February 11, 2013

  Actual Average Record
Temperature  
Mean Temperature 22 °F -  
Max Temperature 30 °F 43 °F 64 °F (2002)
Min Temperature 13 °F 19 °F 1 °F (2004)
Degree Days  
Heating Degree Days 43    
Month to date heating degree days 331  
Moisture  
Dew Point 13 °F    
Average Humidity 69    
Maximum Humidity 88    
Minimum Humidity 50    
Precipitation  
Precipitation T in - - ()
Month to date precipitation 0.30  
Year to date precipitation 0.43  
Sea Level Pressure  
Sea Level Pressure 30.11 in    
Wind  
Wind Speed 4 mph (WSW)    
Max Wind Speed 10 mph    
Max Gust Speed 14 mph    
Visibility 10 miles    
Events      
Averages and records for this station are not official NWS values.
T = Trace of Precipitation, MM = Missing Value Source: NWS Daily Summary

Daily Weather History Graph

Daily Weather History Graph

Search for Another Location

Airport or City:

Trip Planner

Search our weather history database for the weather conditions in past years. The results will help you decide how hot, cold, wet, or windy it might be!

Date:

Astronomy

Feb. 11, 2013 Rise Set
Actual Time 6:56 AM MST 5:31 PM MST
Civil Twilight 6:28 AM MST 5:59 PM MST
Nautical Twilight 5:56 AM MST 6:31 PM MST
Astronomical Twilight 5:25 AM MST 7:02 PM MST
Moon 7:22 AM MST (2/11) 7:30 PM MST (2/11)
Length of Visible Light 11h 31m
Length of Day
10h 35m
Waxing Crescent, 3% of the Moon is Illuminated
Feb 11
Waxing Crescent
Feb 17
First Quarter
Feb 25
Full
Mar 4
Last Quarter
Mar 11
New

Hourly Weather History & Observations

Time (MST) Temp. Windchill Dew Point Humidity Pressure Visibility Wind Dir Wind Speed Gust Speed Precip Events Conditions
12:53 AM 19.0 °F - 12.9 °F 77% 30.13 in 9.0 mi Calm Calm - 0.00 in   Overcast
1:44 AM 17.6 °F 12.3 °F 12.2 °F 79% 30.01 in 5.0 mi East 3.5 mph - 0.00 in   Haze
1:53 AM 17.1 °F 11.7 °F 12.9 °F 84% 30.14 in 10.0 mi East 3.5 mph - 0.00 in   Overcast
2:36 AM 17.6 °F 10.7 °F 12.2 °F 79% 30.00 in 10.0 mi ESE 4.6 mph - N/A   Overcast
2:53 AM 16.0 °F 8.8 °F 12.9 °F 88% 30.14 in 10.0 mi ESE 4.6 mph - N/A   Overcast
3:18 AM 15.8 °F 8.6 °F 10.4 °F 79% 29.98 in 10.0 mi SE 4.6 mph - N/A   Overcast
3:53 AM 15.1 °F 5.2 °F 10.9 °F 84% 30.12 in 10.0 mi SE 6.9 mph - N/A   Mostly Cloudy
5:53 AM 15.1 °F 5.2 °F 10.0 °F 80% 30.14 in 10.0 mi SE 6.9 mph - N/A   Partly Cloudy
6:53 AM 16.0 °F 8.8 °F 12.0 °F 84% 30.15 in 10.0 mi South 4.6 mph - N/A   Scattered Clouds
7:53 AM 16.0 °F 7.4 °F 12.9 °F 88% 30.18 in 8.0 mi WSW 5.8 mph - N/A   Scattered Clouds
8:53 AM 18.0 °F 12.7 °F 14.0 °F 84% 30.17 in 10.0 mi West 3.5 mph - N/A   Scattered Clouds
9:53 AM 19.9 °F 14.9 °F 14.0 °F 78% 30.15 in 10.0 mi WNW 3.5 mph - N/A   Scattered Clouds
10:53 AM 23.0 °F - 15.1 °F 72% 30.12 in 10.0 mi Calm Calm - N/A   Mostly Cloudy
11:53 AM 25.0 °F 19.3 °F 14.0 °F 63% 30.10 in 10.0 mi North 4.6 mph - N/A   Mostly Cloudy
12:53 PM 27.0 °F - 12.9 °F 56% 30.06 in 10.0 mi Calm Calm - N/A   Mostly Cloudy
1:53 PM 28.0 °F - 14.0 °F 56% 30.05 in 10.0 mi Calm Calm - N/A   Mostly Cloudy
2:53 PM 28.9 °F 21.1 °F 12.9 °F 51% 30.04 in 10.0 mi NNW 8.1 mph - N/A   Mostly Cloudy
3:53 PM 27.0 °F 21.6 °F 12.9 °F 56% 30.07 in 10.0 mi North 4.6 mph - N/A   Mostly Cloudy
4:53 PM 26.1 °F 19.4 °F 12.9 °F 58% 30.09 in 10.0 mi NNW 5.8 mph - N/A   Overcast
5:53 PM 25.0 °F 17.1 °F 14.0 °F 63% 30.12 in 10.0 mi NW 6.9 mph - N/A   Overcast
6:53 PM 24.1 °F 16.0 °F 12.9 °F 62% 30.14 in 10.0 mi WNW 6.9 mph - N/A   Overcast
7:53 PM 24.1 °F 18.2 °F 12.9 °F 62% 30.15 in 10.0 mi West 4.6 mph - N/A   Mostly Cloudy
8:53 PM 21.9 °F 15.7 °F 15.1 °F 75% 30.16 in 10.0 mi WSW 4.6 mph - N/A   Mostly Cloudy
9:53 PM 19.0 °F 11.1 °F 14.0 °F 81% 30.15 in 10.0 mi SSW 5.8 mph - N/A   Mostly Cloudy
10:53 PM 17.1 °F 8.7 °F 14.0 °F 88% 30.15 in 7.0 mi South 5.8 mph - N/A   Scattered Clouds
11:53 PM 18.0 °F - 12.9 °F 81% 30.13 in 7.0 mi Calm Calm - N/A   Partly Cloudy